Regional Weather Roundup
Issued by NWS

Home | Current Version | Previous Version | Graphics & Text | Print | Product List | Glossary On
Versions: 1 2 3 4 5 6 7 8 9 10 11 12 13 14 15 16 17 18 19 20 21 22 23 24 25 26 27 28 29 30 31 32 33 34 35 36 37 38 39 40 41 42 43 44 45 46 47 48 49 50
000
ASUS45 KBOU 161807
RWRCO

WEATHER ROUNDUP FOR COLORADO
NATIONAL WEATHER SERVICE DENVER/BOULDER CO
1200 PM MDT WED AUG 16 2017

NOTE: "FAIR" INDICATES FEW OR NO CLOUDS BELOW 12000 FEET WITH NO
SIGNIFICANT WEATHER AND/OR OBSTRUCTIONS TO VISIBILITY.

COZ001>005-013-030-031-161900-
...NORTHWEST COLORADO...

CITY           SKY/WX    TMP DP  RH WIND       PRES   REMARKS
CRAIG          FAIR      70  43  37 VRB7      30.22S
HAYDEN         FAIR      68  46  45 W8        30.25F
MEEKER         FAIR      68  45  43 CALM      30.22S
RABBIT EARS PA FAIR      50  39  66 W7        30.44R
STEAMBOAT SPGS FAIR      64  43  46 S7        30.24S
WALDEN         PTSUNNY   61  36  39 CALM      30.30S
$$

COZ006>008-011-161900-
...WEST CENTRAL VALLEYS...

CITY           SKY/WX    TMP DP  RH WIND       PRES   REMARKS
GRAND JUNCTION FAIR      78  42  27 SW7       30.11F
MONTROSE       FAIR      76  35  22 NE7       30.18F
EAGLE          PTSUNNY   71  39  31 VRB6      30.22F
RIFLE          FAIR      75  40  28 NW7       30.15F
DELTA          FAIR      78  37  23 SW3       30.15S
NUCLA          FAIR      77  32  19 N5        30.22F
$$

COZ017>023-064>068-161900-
...SOUTHWEST COLORADO...

CITY           SKY/WX    TMP DP  RH WIND       PRES   REMARKS
DURANGO        FAIR      74  29  19 W7        30.22F
CORTEZ         FAIR      77  28  16 CALM      30.19S
PAGOSA SPRINGS FAIR      70  27  19 S8        30.29F
TELLURIDE      FAIR      63  27  25 W6        30.40S
WOLF CREEK PAS FAIR      50  32  50 SW7       30.58S
$$

COZ009-010-012-014-032>034-037-058>063-161900-
...CENTRAL COLORADO...

CITY           SKY/WX    TMP DP  RH WIND       PRES   REMARKS
ASPEN          FAIR      69  32  25 N9        30.26F
BUENA VISTA    PTSUNNY   68  31  25 N6        30.26S
COPPER MTN     PTSUNNY   46  30  53 NW10G18   30.52R
BERTHOUD PASS  PTSUNNY   39  34  81 NW21G32   30.52R
COTTONWOOD PAS PTSUNNY   66  30  26 N6        30.38S
GUNNISON       FAIR      66  36  32 VRB6      30.27F
KREMMLING      PTSUNNY   68  41  37 CALM      30.26S
LEADVILLE      PTSUNNY   55  31  39 N7G17     30.38R
MONARCH PASS   FAIR      48  30  49 W20G33    30.62S
SALIDA         PTSUNNY   70  35  27 SE3       30.30F
SUNLIGHT       FAIR      52  36  54 W9        30.49S
WILKERSON PASS PTSUNNY   50  30  46 W6        30.50R
$$

COZ069>075-161900-
...SAN LUIS VALLEY/SANGRE DE CRISTO MOUNTAINS...

CITY           SKY/WX    TMP DP  RH WIND       PRES   REMARKS
ALAMOSA        FAIR      69  34  27 SE7       30.25F
DEL NORTE      FAIR      70  33  25 SW10G16   30.27F
LA VETA PASS   NOT AVBL
SAGUACHE       FAIR      70  34  26 N14G20    30.27F
$$

COZ035-036-038>040-161900-
...NORTHERN COLORADO FRONT RANGE...

CITY           SKY/WX    TMP DP  RH WIND       PRES   REMARKS
DENVER INTL AP PTSUNNY   69  50  50 NE9       30.15S
DMNS CITY PARK   N/A     71  47  42 N13       30.13F
AURORA         PTSUNNY   69  51  54 E7        30.16S
FRONT RANGE AP FAIR      68  52  56 NE12G17   30.17S
ERIE MUNI ARPT FAIR      70  48  45 E5        30.18S
BOULDER MUN AP FAIR      70  50  49 E6        30.13F
CENTENNIAL     PTSUNNY   69  47  45 E9        30.16F
BROOMFIELD     MOSUNNY   70  48  46 S3        30.16S
FORT COLLINS   FAIR      70  53  54 SW10      30.13S
LONGMONT       FAIR      74  50  43 SE8       30.14S
$$

COZ041-046-047-076>085-087-088-161900-
...PIKES PEAK/PALMER DIVIDE AND SOUTHERN FOOTHILLS...

CITY           SKY/WX    TMP DP  RH WIND       PRES   REMARKS
COLO. SPRINGS  FAIR      68  48  48 S7        30.19S
A. F. ACADEMY  PTSUNNY   67  46  46 S6        30.19S
SCHRIEVER AFB  FAIR      68  48  48 W7        30.20R
CHEYENNE MTN   PTSUNNY   62  48  58 SE12G21   30.16R
ELLICOTT       FAIR     N/A N/A N/A VRB5      30.18R
FALCON         PTSUNNY   65  44  45 CALM      30.23S
FORT CARSON    FAIR      72  51  48 SE12      30.15F
LIMON          FAIR      66  51  58 N15       30.15R
MONUMENT HILL  FAIR      63  46  55 NE6       30.25S
CANON CITY     SUNNY     75  52  43 E6        30.13F
WALSENBURG     FAIR      75  45  33 CALM      30.17S
TRINIDAD       FAIR      72  47  40 VRB5      30.17F
$$

COZ042>045-048>051-090-091-161900-
...NORTHEAST COLORADO...

CITY           SKY/WX    TMP DP  RH WIND       PRES   REMARKS
GREELEY ARPT   FAIR      71  49  45 VRB3      30.12S
AKRON          FAIR      70  49  47 NW20G26   30.09S
BURLINGTON     FAIR      74  57  55 NW17G23   30.07R
WRAY           NOT AVBL
YUMA           FAIR      70  37  30 NW16G22   30.06S
STERLING       FAIR      73  52  46 N16       30.06S
HOLYOKE        FAIR      73  55  53 NW13G23   30.03F
FORT MORGAN    FAIR      72  42  34 NW14G23   30.11S
$$

COZ086-089-092>099-161900-
...SOUTHEAST COLORADO...

CITY           SKY/WX    TMP DP  RH WIND       PRES   REMARKS
PUEBLO         FAIR      77  48  35 VRB7      30.10S
LA JUNTA       FAIR      76  51  41 MISG      30.10R
LAMAR          FAIR      79  53  40 NW10      30.03F
SPRINGFIELD      N/A     77  54  44 NW8G17    30.07F
$$



USA.gov is the U.S. government's official web portal to all federal, state and local government web resources and services.